START_TIME,STEP,MOV.,M34,t_acc.,L5,t_acc.,L18,t_acc.,L14,t_acc.
1979-07-27 15:00:23.950 ,1,0,0.,12.0,0.,12.0,0.,12.0,0.,12.0
1979-07-27 15:00:35.950 ,1,0,0.,12.0,0.,12.0,0.,12.0,0.,12.0
1979-07-27 15:00:47.950 ,2,1,0.,12.0,0.,12.0,0.,12.0,0.,12.0
1979-07-27 15:00:59.950 ,2,1,0.,12.0,0.,12.0,0.,12.0,0.,12.0
1979-07-27 15:01:11.950 ,2,0,0.,12.0,0.,12.0,0.,12.0,0.,12.0
1979-07-27 15:01:23.950 ,2,0,0.,12.0,0.,12.0,0.,12.0,0.,12.0
1979-07-27 15:01:35.950 ,3,1,0.,12.0,0.,12.0,0.,12.0,0.,12.0
1979-07-27 15:01:47.950 ,3,1,0.,12.0,0.,12.0,0.,12.0,0.,12.0
1979-07-27 15:01:59.950 ,3,0,0.,12.0,0.,12.0,0.,12.0,0.,12.0
1979-07-27 15:02:11.950 ,3,0,0.,12.0,0.,12.0,0.,12.0,0.,12.0
1979-07-27 15:02:23.950 ,4,1,0.,12.0,0.,12.0,0.,12.0,0.,12.0
1979-07-27 15:02:35.950 ,4,1,0.,12.0,0.,12.0,0.,12.0,0.,12.0
1979-07-27 15:02:47.950 ,4,0,0.,12.0,0.,12.0,0.,12.0,0.,12.0
1979-07-27 15:02:59.950 ,4,0,0.,12.0,0.,12.0,0.,12.0,0.,12.0
1979-07-27 15:03:11.950 ,5,1,0.,12.0,0.,12.0,0.,12.0,0.,12.0
1979-07-27 15:03:23.950 ,5,1,0.,12.0,0.,12.0,0.,12.0,0.,12.0
1979-07-27 15:03:35.950 ,5,0,0.,12.0,0.,12.0,0.,12.0,0.,12.0
1979-07-27 15:03:47.950 ,5,0,0.,12.0,0.,12.0,0.,12.0,0.,12.0
1979-07-27 15:03:59.950 ,6,1,0.,12.0,0.,12.0,0.,12.0,0.,12.0
1979-07-27 15:04:11.950 ,6,1,0.,12.0,0.,12.0,0.,12.0,0.,12.0
1979-07-27 15:04:23.950 ,6,0,0.,12.0,0.,12.0,0.,12.0,0.,12.0
1979-07-27 15:04:35.950 ,6,0,0.,12.0,0.,12.0,0.,12.0,0.,12.0
1979-07-27 15:04:47.950 ,7,1,0.,12.0,0.,12.0,0.,12.0,0.,12.0
1979-07-27 15:04:59.950 ,7,1,0.,12.0,0.,12.0,0.,12.0,0.,12.0
1979-07-27 15:05:11.950 ,7,0,0.,12.0,0.,12.0,0.,12.0,0.,12.0
1979-07-27 15:05:23.950 ,7,0,0.,12.0,0.,12.0,0.,12.0,0.,12.0
1979-07-27 15:05:35.950 ,7,1,0.,12.0,0.,12.0,0.,12.0,0.,12.0
1979-07-27 15:05:47.950 ,7,1,0.,12.0,0.,12.0,0.,12.0,0.,12.0
1979-07-27 15:05:59.950 ,7,0,0.,12.0,0.,12.0,0.,12.0,0.,12.0
1979-07-27 15:06:11.950 ,7,0,,0,,0,,0,,0
1979-07-27 15:06:23.950 ,6,1,0.,12.0,0.,12.0,0.,12.0,1.,12.0
1979-07-27 15:06:35.950 ,6,1,0.,12.0,0.,12.0,0.,12.0,0.,12.0
1979-07-27 15:06:47.950 ,6,0,0.,12.0,0.,12.0,0.,12.0,0.,12.0
1979-07-27 15:06:59.950 ,6,0,0.,12.0,0.,12.0,0.,12.0,0.,12.0
1979-07-27 15:07:11.950 ,5,1,0.,12.0,0.,12.0,0.,12.0,0.,12.0
1979-07-27 15:07:23.950 ,5,1,0.,12.0,0.,12.0,0.,12.0,0.,12.0
1979-07-27 15:07:35.950 ,5,0,0.,12.0,0.,12.0,0.,12.0,0.,12.0
1979-07-27 15:07:47.950 ,5,0,0.,12.0,0.,12.0,0.,12.0,0.,12.0
1979-07-27 15:07:59.950 ,4,1,0.,12.0,0.,12.0,0.,12.0,0.,12.0
1979-07-27 15:08:11.950 ,4,1,0.,12.0,0.,12.0,0.,12.0,0.,12.0
1979-07-27 15:08:23.950 ,4,0,0.,12.0,0.,12.0,0.,12.0,0.,12.0
1979-07-27 15:08:35.950 ,4,0,0.,12.0,0.,12.0,0.,12.0,0.,12.0
1979-07-27 15:08:47.950 ,3,1,0.,12.0,0.,12.0,0.,12.0,0.,12.0
1979-07-27 15:08:59.950 ,3,1,0.,12.0,0.,12.0,0.,12.0,0.,12.0
1979-07-27 15:09:11.950 ,3,0,0.,12.0,0.,12.0,0.,12.0,0.,12.0
1979-07-27 15:09:23.950 ,3,0,0.,12.0,0.,12.0,0.,12.0,0.,12.0
1979-07-27 15:09:35.950 ,2,1,0.,12.0,0.,12.0,0.,12.0,0.,12.0
1979-07-27 15:09:47.950 ,2,1,0.,12.0,0.,12.0,0.,12.0,0.,12.0
1979-07-27 15:09:59.950 ,2,0,0.,12.0,0.,12.0,0.,12.0,0.,12.0
1979-07-27 15:10:11.950 ,2,0,0.,12.0,0.,12.0,0.,12.0,0.,12.0
1979-07-27 15:10:23.950 ,1,1,0.,12.0,0.,12.0,0.,12.0,0.,12.0
1979-07-27 15:10:35.950 ,1,1,0.,12.0,0.,12.0,0.,12.0,0.,12.0
1979-07-27 15:10:47.950 ,1,0,0.,12.0,0.,12.0,0.,12.0,0.,12.0
1979-07-27 15:10:59.950 ,1,0,0.,12.0,0.,12.0,0.,12.0,0.,12.0
1979-07-27 15:11:11.950 ,0,1,0.,12.0,0.,12.0,0.,12.0,0.,12.0
1979-07-27 15:11:23.950 ,0,1,0.,12.0,0.,12.0,0.,12.0,0.,12.0
1979-07-27 15:11:35.950 ,0,0,0.,12.0,0.,12.0,0.,12.0,0.,12.0
1979-07-27 15:11:47.950 ,0,0,0.,12.0,0.,12.0,0.,12.0,0.,12.0
1979-07-27 15:11:59.950 ,0,1,0.,12.0,0.,12.0,0.,12.0,0.,12.0
1979-07-27 15:12:11.950 ,0,1,0.,12.0,0.,12.0,0.,12.0,0.,12.0
1979-07-27 15:12:23.950 ,0,0,0.,12.0,0.,12.0,0.,12.0,0.,12.0
1979-07-27 15:12:35.950 ,0,0,0.,12.0,0.,12.0,0.,12.0,0.,12.0
1979-07-27 15:12:47.950 ,1,1,0.,12.0,0.,12.0,0.,12.0,0.,12.0
1979-07-27 15:12:59.950 ,1,1,0.,12.0,0.,12.0,0.,12.0,0.,12.0
1979-07-27 15:13:11.950 ,1,0,0.,12.0,0.,12.0,0.,12.0,0.,12.0
1979-07-27 15:13:23.950 ,1,0,0.,12.0,0.,12.0,0.,12.0,0.,12.0
1979-07-27 15:13:35.950 ,2,1,0.,12.0,0.,12.0,0.,12.0,0.,12.0
1979-07-27 15:13:47.950 ,2,1,0.,12.0,0.,12.0,0.,12.0,0.,12.0
1979-07-27 15:13:59.950 ,2,0,0.,12.0,0.,12.0,0.,12.0,0.,12.0
1979-07-27 15:14:11.950 ,2,0,0.,12.0,0.,12.0,0.,12.0,0.,12.0
1979-07-27 15:14:23.950 ,3,1,0.,12.0,0.,12.0,0.,12.0,0.,12.0
1979-07-27 15:14:35.950 ,3,1,0.,12.0,0.,12.0,0.,12.0,0.,12.0
1979-07-27 15:14:47.950 ,3,0,0.,12.0,0.,12.0,0.,12.0,0.,12.0
1979-07-27 15:14:59.950 ,3,0,0.,12.0,0.,12.0,0.,12.0,0.,12.0
1979-07-27 15:15:11.950 ,4,1,0.,12.0,0.,12.0,0.,12.0,0.,12.0
1979-07-27 15:15:23.950 ,4,1,0.,12.0,0.,12.0,0.,12.0,0.,12.0
1979-07-27 15:15:35.950 ,4,0,0.,12.0,0.,12.0,0.,12.0,0.,12.0
1979-07-27 15:15:47.950 ,4,0,0.,12.0,0.,12.0,0.,12.0,0.,12.0
1979-07-27 15:15:59.950 ,5,1,0.,12.0,0.,12.0,0.,12.0,0.,12.0
1979-07-27 15:16:11.950 ,5,1,0.,12.0,0.,12.0,0.,12.0,0.,12.0
1979-07-27 15:16:23.950 ,5,0,0.,12.0,0.,12.0,0.,12.0,0.,12.0
1979-07-27 15:16:35.950 ,5,0,0.,12.0,0.,12.0,0.,12.0,0.,12.0
1979-07-27 15:16:47.950 ,6,1,0.,12.0,0.,12.0,0.,12.0,0.,12.0
1979-07-27 15:16:59.950 ,6,1,0.,12.0,0.,12.0,0.,12.0,0.,12.0
1979-07-27 15:17:11.950 ,6,0,0.,12.0,0.,12.0,0.,12.0,0.,12.0
1979-07-27 15:17:23.950 ,6,0,0.,12.0,0.,12.0,0.,12.0,0.,12.0
1979-07-27 15:17:35.950 ,7,1,0.,12.0,0.,12.0,0.,12.0,0.,12.0
1979-07-27 15:17:47.950 ,7,1,0.,12.0,0.,12.0,0.,12.0,0.,12.0
1979-07-27 15:17:59.950 ,7,0,0.,12.0,0.,12.0,0.,12.0,0.,12.0
1979-07-27 15:18:11.950 ,7,0,0.,12.0,0.,12.0,0.,12.0,0.,12.0
1979-07-27 15:18:23.950 ,7,1,0.,12.0,0.,12.0,0.,12.0,0.,12.0
1979-07-27 15:18:35.950 ,7,1,0.,12.0,0.,12.0,0.,12.0,0.,12.0
1979-07-27 15:18:47.950 ,7,0,0.,12.0,0.,12.0,0.,12.0,0.,12.0
1979-07-27 15:18:59.950 ,7,0,0.,12.0,0.,12.0,0.,12.0,0.,12.0
1979-07-27 15:19:11.950 ,6,1,0.,12.0,0.,12.0,0.,12.0,0.,12.0
1979-07-27 15:19:23.950 ,6,1,0.,12.0,0.,12.0,0.,12.0,0.,12.0
1979-07-27 15:19:35.950 ,6,0,0.,12.0,0.,12.0,0.,12.0,0.,12.0
1979-07-27 15:19:47.950 ,6,0,0.,12.0,0.,12.0,0.,12.0,0.,12.0
1979-07-27 15:19:59.950 ,5,1,0.,12.0,0.,12.0,0.,12.0,0.,12.0
1979-07-27 15:20:11.950 ,5,1,0.,12.0,0.,12.0,0.,12.0,0.,12.0
1979-07-27 15:20:23.950 ,5,0,0.,12.0,0.,12.0,0.,12.0,0.,12.0
1979-07-27 15:20:35.950 ,5,0,0.,12.0,0.,12.0,0.,12.0,0.,12.0
1979-07-27 15:20:47.950 ,4,1,0.,12.0,0.,12.0,0.,12.0,0.,12.0
1979-07-27 15:20:59.950 ,4,1,0.,12.0,0.,12.0,0.,12.0,0.,12.0
1979-07-27 15:21:11.950 ,4,0,0.,12.0,0.,12.0,0.,12.0,0.,12.0
1979-07-27 15:21:23.950 ,4,0,0.,12.0,0.,12.0,0.,12.0,0.,12.0
1979-07-27 15:21:35.950 ,3,1,0.,12.0,0.,12.0,0.,12.0,0.,12.0
1979-07-27 15:21:47.950 ,3,1,0.,12.0,0.,12.0,0.,12.0,0.,12.0
1979-07-27 15:21:59.950 ,3,0,0.,12.0,0.,12.0,0.,12.0,0.,12.0
1979-07-27 15:22:11.950 ,3,0,0.,12.0,0.,12.0,0.,12.0,0.,12.0
1979-07-27 15:22:23.950 ,2,1,0.,12.0,0.,12.0,0.,12.0,0.,12.0
1979-07-27 15:22:35.950 ,2,1,0.,12.0,0.,12.0,0.,12.0,0.,12.0
1979-07-27 15:22:47.950 ,2,0,0.,12.0,0.,12.0,0.,12.0,0.,12.0
1979-07-27 15:22:59.950 ,2,0,0.,12.0,0.,12.0,0.,12.0,0.,12.0
1979-07-27 15:23:11.950 ,1,1,0.,12.0,0.,12.0,0.,12.0,0.,12.0
1979-07-27 15:23:23.950 ,1,1,0.,12.0,0.,12.0,0.,12.0,0.,12.0
1979-07-27 15:23:35.950 ,1,0,0.,12.0,0.,12.0,0.,12.0,0.,12.0
1979-07-27 15:23:47.950 ,1,0,0.,12.0,0.,12.0,0.,12.0,0.,12.0
1979-07-27 15:23:59.950 ,0,1,0.,12.0,0.,12.0,0.,12.0,0.,12.0
1979-07-27 15:24:11.950 ,0,1,0.,12.0,0.,12.0,0.,12.0,0.,12.0
1979-07-27 15:24:23.950 ,0,0,0.,12.0,0.,12.0,0.,12.0,0.,12.0
1979-07-27 15:24:35.950 ,0,0,0.,12.0,0.,12.0,0.,12.0,0.,12.0
1979-07-27 15:24:47.950 ,0,1,0.,12.0,0.,12.0,0.,12.0,0.,12.0
1979-07-27 15:24:59.950 ,0,1,0.,12.0,0.,12.0,0.,12.0,0.,12.0
1979-07-27 15:25:11.950 ,0,0,0.,12.0,0.,12.0,0.,12.0,0.,12.0
1979-07-27 15:25:23.950 ,0,0,0.,12.0,0.,12.0,0.,12.0,0.,12.0
1979-07-27 15:25:35.950 ,1,1,0.,12.0,0.,12.0,0.,12.0,0.,12.0
1979-07-27 15:25:47.950 ,1,1,1.,12.0,0.,12.0,0.,12.0,0.,12.0
1979-07-27 15:25:59.950 ,1,0,0.,12.0,0.,12.0,0.,12.0,0.,12.0
1979-07-27 15:26:11.950 ,1,0,0.,12.0,0.,12.0,0.,12.0,0.,12.0
1979-07-27 15:26:23.950 ,2,1,0.,12.0,0.,12.0,0.,12.0,0.,12.0
1979-07-27 15:26:35.950 ,2,1,0.,12.0,0.,12.0,0.,12.0,0.,12.0
1979-07-27 15:26:47.950 ,2,0,0.,12.0,0.,12.0,0.,12.0,0.,12.0
1979-07-27 15:26:59.950 ,2,0,0.,12.0,0.,12.0,0.,12.0,0.,12.0
1979-07-27 15:27:11.950 ,3,1,0.,12.0,0.,12.0,0.,12.0,0.,12.0
1979-07-27 15:27:23.950 ,3,1,0.,12.0,0.,12.0,0.,12.0,0.,12.0
1979-07-27 15:27:35.950 ,3,0,0.,12.0,0.,12.0,0.,12.0,0.,12.0
1979-07-27 15:27:47.950 ,3,0,0.,12.0,0.,12.0,0.,12.0,0.,12.0
1979-07-27 15:27:59.950 ,4,1,0.,12.0,0.,12.0,0.,12.0,0.,12.0
1979-07-27 15:28:11.950 ,4,1,0.,12.0,0.,12.0,0.,12.0,0.,12.0
1979-07-27 15:28:23.950 ,4,0,0.,12.0,0.,12.0,0.,12.0,0.,12.0
1979-07-27 15:28:35.950 ,4,0,0.,12.0,0.,12.0,0.,12.0,0.,12.0
1979-07-27 15:28:47.950 ,5,1,0.,12.0,0.,12.0,0.,12.0,0.,12.0
1979-07-27 15:28:59.950 ,5,1,0.,12.0,0.,12.0,0.,12.0,0.,12.0
1979-07-27 15:29:11.950 ,5,0,0.,12.0,0.,12.0,0.,12.0,0.,12.0
1979-07-27 15:29:23.950 ,5,0,0.,12.0,0.,12.0,0.,12.0,0.,12.0
1979-07-27 15:29:35.950 ,6,1,0.,12.0,0.,12.0,0.,12.0,0.,12.0
1979-07-27 15:29:47.950 ,6,1,0.,12.0,0.,12.0,0.,12.0,0.,12.0
1979-07-27 15:29:59.950 ,6,0,0.,12.0,0.,12.0,0.,12.0,0.,12.0
1979-07-27 15:30:11.950 ,6,0,0.,12.0,0.,12.0,0.,12.0,0.,12.0
1979-07-27 15:30:23.950 ,7,0,0.,12.0,0.,12.0,0.,12.0,0.,12.0
1979-07-27 15:30:35.950 ,7,0,0.,12.0,0.,12.0,0.,12.0,0.,12.0
1979-07-27 15:30:47.950 ,7,0,0.,12.0,0.,12.0,0.,12.0,0.,12.0
1979-07-27 15:30:59.950 ,7,0,0.,12.0,0.,12.0,0.,12.0,0.,12.0
1979-07-27 15:31:11.950 ,4,1,0.,12.0,0.,12.0,0.,12.0,0.,12.0
1979-07-27 15:31:23.950 ,4,1,0.,12.0,0.,12.0,0.,12.0,0.,12.0
1979-07-27 15:31:35.950 ,0,1,0.,12.0,0.,12.0,0.,12.0,0.,12.0
1979-07-27 15:31:47.950 ,0,1,0.,12.0,0.,12.0,0.,12.0,0.,12.0
1979-07-27 15:31:59.950 ,3,1,0.,12.0,0.,12.0,0.,12.0,0.,12.0
1979-07-27 15:32:11.950 ,3,1,0.,12.0,0.,12.0,0.,12.0,0.,12.0
1979-07-27 15:32:23.950 ,7,1,0.,12.0,0.,12.0,0.,12.0,0.,12.0
1979-07-27 15:32:35.950 ,7,1,0.,12.0,0.,12.0,0.,12.0,0.,12.0
1979-07-27 15:32:47.950 ,4,1,0.,12.0,0.,12.0,0.,12.0,0.,12.0
1979-07-27 15:32:59.950 ,4,1,0.,12.0,0.,12.0,0.,12.0,0.,12.0
1979-07-27 15:33:11.950 ,0,1,0.,12.0,0.,12.0,0.,12.0,0.,12.0
1979-07-27 15:33:23.950 ,0,1,0.,12.0,0.,12.0,0.,12.0,0.,12.0
1979-07-27 15:33:35.950 ,3,1,0.,12.0,0.,12.0,0.,12.0,0.,12.0
1979-07-27 15:33:47.950 ,3,1,0.,12.0,0.,12.0,0.,12.0,0.,12.0
1979-07-27 15:33:59.950 ,7,1,0.,12.0,0.,12.0,0.,12.0,0.,12.0
1979-07-27 15:34:11.950 ,7,1,0.,12.0,0.,12.0,0.,12.0,0.,12.0
1979-07-27 15:34:23.950 ,4,1,0.,12.0,0.,12.0,0.,12.0,0.,12.0
1979-07-27 15:34:35.950 ,4,1,0.,12.0,0.,12.0,0.,12.0,0.,12.0
1979-07-27 15:34:47.950 ,0,1,0.,12.0,0.,12.0,0.,12.0,0.,12.0
1979-07-27 15:34:59.950 ,0,1,0.,12.0,0.,12.0,0.,12.0,0.,12.0
1979-07-27 15:35:11.950 ,3,1,0.,12.0,0.,12.0,0.,12.0,0.,12.0
1979-07-27 15:35:23.950 ,3,1,0.,12.0,0.,12.0,0.,12.0,0.,12.0
1979-07-27 15:35:35.950 ,7,1,0.,12.0,0.,12.0,0.,12.0,0.,12.0
1979-07-27 15:35:47.950 ,7,1,0.,12.0,0.,12.0,0.,12.0,0.,12.0
1979-07-27 15:35:59.950 ,4,1,0.,12.0,0.,12.0,0.,12.0,0.,12.0
1979-07-27 15:36:11.950 ,4,1,1.,12.0,0.,12.0,0.,12.0,0.,12.0
1979-07-27 15:36:23.950 ,0,1,0.,12.0,0.,12.0,0.,12.0,0.,12.0
1979-07-27 15:36:35.950 ,0,1,0.,12.0,0.,12.0,0.,12.0,0.,12.0
1979-07-27 15:36:47.950 ,3,1,0.,12.0,0.,12.0,0.,12.0,0.,12.0
1979-07-27 15:36:59.950 ,3,1,0.,12.0,0.,12.0,0.,12.0,0.,12.0
1979-07-27 15:37:11.950 ,7,1,0.,12.0,0.,12.0,0.,12.0,1.,12.0
1979-07-27 15:37:23.950 ,7,1,0.,12.0,0.,12.0,0.,12.0,0.,12.0
1979-07-27 15:37:35.950 ,4,1,0.,12.0,0.,12.0,0.,12.0,0.,12.0
1979-07-27 15:37:47.950 ,4,1,0.,12.0,0.,12.0,0.,12.0,0.,12.0
1979-07-27 15:37:59.950 ,0,1,0.,12.0,0.,12.0,0.,12.0,0.,12.0
1979-07-27 15:38:11.950 ,0,1,0.,12.0,0.,12.0,0.,12.0,0.,12.0
1979-07-27 15:38:23.950 ,3,1,0.,12.0,0.,12.0,0.,12.0,0.,12.0
1979-07-27 15:38:35.950 ,3,1,0.,12.0,0.,12.0,0.,12.0,0.,12.0
1979-07-27 15:38:47.950 ,7,1,0.,12.0,0.,12.0,0.,12.0,0.,12.0
1979-07-27 15:38:59.950 ,7,1,0.,12.0,0.,12.0,0.,12.0,0.,12.0
1979-07-27 15:39:11.950 ,4,1,0.,12.0,0.,12.0,0.,12.0,0.,12.0
1979-07-27 15:39:23.950 ,4,1,0.,12.0,0.,12.0,0.,12.0,0.,12.0
1979-07-27 15:39:35.950 ,0,1,0.,12.0,0.,12.0,0.,12.0,0.,12.0
1979-07-27 15:39:47.950 ,0,1,0.,12.0,0.,12.0,0.,12.0,0.,12.0
1979-07-27 15:39:59.950 ,3,1,0.,12.0,0.,12.0,0.,12.0,0.,12.0
1979-07-27 15:40:11.950 ,3,1,0.,12.0,0.,12.0,0.,12.0,0.,12.0
1979-07-27 15:40:23.950 ,7,1,0.,12.0,0.,12.0,0.,12.0,0.,12.0
1979-07-27 15:40:35.950 ,7,1,0.,12.0,0.,12.0,0.,12.0,0.,12.0
1979-07-27 15:40:47.950 ,4,1,0.,12.0,0.,12.0,0.,12.0,0.,12.0
1979-07-27 15:40:59.950 ,4,1,0.,12.0,0.,12.0,0.,12.0,0.,12.0
1979-07-27 15:41:11.950 ,0,1,0.,12.0,0.,12.0,0.,12.0,0.,12.0
1979-07-27 15:41:23.950 ,0,1,0.,12.0,0.,12.0,0.,12.0,0.,12.0
1979-07-27 15:41:35.950 ,0,0,0.,12.0,0.,12.0,0.,12.0,0.,12.0
1979-07-27 15:41:47.950 ,0,0,0.,12.0,0.,12.0,0.,12.0,0.,12.0
1979-07-27 15:41:59.950 ,0,0,0.,12.0,0.,12.0,0.,12.0,0.,12.0
1979-07-27 15:42:11.950 ,0,0,0.,12.0,0.,12.0,0.,12.0,0.,12.0
1979-07-27 15:42:23.950 ,5,1,0.,12.0,0.,12.0,0.,12.0,0.,12.0
1979-07-27 15:42:35.950 ,5,1,0.,12.0,0.,12.0,0.,12.0,0.,12.0
1979-07-27 15:42:47.950 ,5,0,0.,12.0,0.,12.0,0.,12.0,0.,12.0
1979-07-27 15:42:59.950 ,5,0,0.,12.0,0.,12.0,0.,12.0,0.,12.0
1979-07-27 15:43:11.950 ,4,1,0.,12.0,0.,12.0,0.,12.0,0.,12.0
1979-07-27 15:43:23.950 ,4,1,0.,12.0,0.,12.0,0.,12.0,0.,12.0
1979-07-27 15:43:35.950 ,4,0,0.,12.0,0.,12.0,0.,12.0,0.,12.0
1979-07-27 15:43:47.950 ,4,0,0.,12.0,0.,12.0,0.,12.0,0.,12.0
1979-07-27 15:43:59.950 ,3,1,0.,12.0,0.,12.0,0.,12.0,0.,12.0
1979-07-27 15:44:11.950 ,3,1,0.,12.0,0.,12.0,0.,12.0,0.,12.0
1979-07-27 15:44:23.950 ,3,0,0.,12.0,0.,12.0,0.,12.0,0.,12.0
1979-07-27 15:44:35.950 ,3,0,0.,12.0,0.,12.0,0.,12.0,0.,12.0
1979-07-27 15:44:47.950 ,2,1,0.,12.0,0.,12.0,0.,12.0,0.,12.0
1979-07-27 15:44:59.950 ,2,1,0.,12.0,0.,12.0,0.,12.0,0.,12.0
1979-07-27 15:45:11.950 ,2,0,0.,12.0,0.,12.0,0.,12.0,0.,12.0
1979-07-27 15:45:23.950 ,2,0,0.,12.0,0.,12.0,0.,12.0,0.,12.0
1979-07-27 15:45:35.950 ,1,1,0.,12.0,0.,12.0,0.,12.0,0.,12.0
1979-07-27 15:45:47.950 ,1,1,0.,12.0,0.,12.0,0.,12.0,0.,12.0
1979-07-27 15:45:59.950 ,1,0,0.,12.0,0.,12.0,0.,12.0,0.,12.0
1979-07-27 15:46:11.950 ,1,0,0.,12.0,0.,12.0,0.,12.0,0.,12.0
1979-07-27 15:46:23.950 ,0,1,0.,12.0,0.,12.0,0.,12.0,0.,12.0
1979-07-27 15:46:35.950 ,0,1,0.,12.0,0.,12.0,0.,12.0,0.,12.0
1979-07-27 15:46:47.950 ,0,0,0.,12.0,0.,12.0,0.,12.0,0.,12.0
1979-07-27 15:46:59.950 ,0,0,0.,12.0,0.,12.0,0.,12.0,0.,12.0
1979-07-27 15:47:11.950 ,0,1,0.,12.0,0.,12.0,0.,12.0,0.,12.0
1979-07-27 15:47:23.950 ,0,1,0.,12.0,0.,12.0,0.,12.0,0.,12.0
1979-07-27 15:47:35.950 ,0,0,0.,12.0,0.,12.0,0.,12.0,0.,12.0
1979-07-27 15:47:47.950 ,0,0,0.,12.0,0.,12.0,0.,12.0,0.,12.0
1979-07-27 15:47:59.950 ,1,1,0.,12.0,0.,12.0,0.,12.0,0.,12.0
1979-07-27 15:48:11.950 ,1,1,0.,12.0,0.,12.0,0.,12.0,0.,12.0
1979-07-27 15:48:23.950 ,1,0,0.,12.0,0.,12.0,0.,12.0,0.,12.0
1979-07-27 15:48:35.950 ,1,0,0.,12.0,0.,12.0,0.,12.0,0.,12.0
1979-07-27 15:48:47.950 ,2,1,0.,12.0,0.,12.0,0.,12.0,0.,12.0
1979-07-27 15:48:59.950 ,2,1,0.,12.0,0.,12.0,0.,12.0,0.,12.0
1979-07-27 15:49:11.950 ,2,0,0.,12.0,0.,12.0,0.,12.0,0.,12.0
1979-07-27 15:49:23.950 ,2,0,0.,12.0,0.,12.0,0.,12.0,0.,12.0
1979-07-27 15:49:35.950 ,3,1,0.,12.0,0.,12.0,0.,12.0,0.,12.0
1979-07-27 15:49:47.950 ,3,1,0.,12.0,0.,12.0,0.,12.0,0.,12.0
1979-07-27 15:49:59.950 ,3,0,0.,12.0,0.,12.0,0.,12.0,0.,12.0
1979-07-27 15:50:11.950 ,3,0,0.,12.0,0.,12.0,0.,12.0,0.,12.0
1979-07-27 15:50:23.950 ,4,1,0.,12.0,0.,12.0,0.,12.0,0.,12.0
1979-07-27 15:50:35.950 ,4,1,0.,12.0,0.,12.0,0.,12.0,0.,12.0
1979-07-27 15:50:47.950 ,4,0,0.,12.0,0.,12.0,0.,12.0,0.,12.0
1979-07-27 15:50:59.950 ,4,0,0.,12.0,0.,12.0,0.,12.0,0.,12.0
1979-07-27 15:51:11.950 ,5,1,0.,12.0,0.,12.0,0.,12.0,0.,12.0
1979-07-27 15:51:23.950 ,5,1,0.,12.0,0.,12.0,0.,12.0,0.,12.0
1979-07-27 15:51:35.950 ,5,0,0.,12.0,0.,12.0,0.,12.0,0.,12.0
1979-07-27 15:51:47.950 ,5,0,0.,12.0,0.,12.0,0.,12.0,0.,12.0
1979-07-27 15:51:59.950 ,6,1,0.,12.0,0.,12.0,0.,12.0,0.,12.0
1979-07-27 15:52:11.950 ,6,1,0.,12.0,0.,12.0,0.,12.0,0.,12.0
1979-07-27 15:52:23.950 ,6,0,0.,12.0,0.,12.0,0.,12.0,0.,12.0
1979-07-27 15:52:35.950 ,6,0,0.,12.0,0.,12.0,0.,12.0,0.,12.0
1979-07-27 15:52:47.950 ,7,1,0.,12.0,0.,12.0,0.,12.0,0.,12.0
1979-07-27 15:52:59.950 ,7,1,0.,12.0,0.,12.0,0.,12.0,0.,12.0
1979-07-27 15:53:11.950 ,7,0,0.,12.0,0.,12.0,0.,12.0,0.,12.0
1979-07-27 15:53:23.950 ,7,0,0.,12.0,0.,12.0,0.,12.0,0.,12.0
1979-07-27 15:53:35.950 ,7,1,0.,12.0,0.,12.0,0.,12.0,0.,12.0
1979-07-27 15:53:47.950 ,7,1,0.,12.0,0.,12.0,0.,12.0,0.,12.0
1979-07-27 15:53:59.950 ,7,0,0.,12.0,0.,12.0,0.,12.0,0.,12.0
1979-07-27 15:54:11.950 ,7,0,0.,12.0,0.,12.0,0.,12.0,0.,12.0
1979-07-27 15:54:23.950 ,6,1,0.,12.0,0.,12.0,0.,12.0,0.,12.0
1979-07-27 15:54:35.950 ,6,1,0.,12.0,0.,12.0,0.,12.0,0.,12.0
1979-07-27 15:54:47.950 ,6,0,0.,12.0,0.,12.0,0.,12.0,0.,12.0
1979-07-27 15:54:59.950 ,6,0,0.,12.0,0.,12.0,0.,12.0,0.,12.0
1979-07-27 15:55:11.950 ,5,1,0.,12.0,0.,12.0,0.,12.0,0.,12.0
1979-07-27 15:55:23.950 ,5,1,0.,12.0,0.,12.0,0.,12.0,0.,12.0
1979-07-27 15:55:35.950 ,5,0,0.,12.0,0.,12.0,0.,12.0,0.,12.0
1979-07-27 15:55:47.950 ,5,0,0.,12.0,0.,12.0,0.,12.0,0.,12.0
1979-07-27 15:55:59.950 ,4,1,0.,12.0,0.,12.0,0.,12.0,0.,12.0
1979-07-27 15:56:11.950 ,4,1,1.,12.0,0.,12.0,0.,12.0,0.,12.0
1979-07-27 15:56:23.950 ,4,0,0.,12.0,0.,12.0,0.,12.0,0.,12.0
1979-07-27 15:56:35.950 ,4,0,0.,12.0,0.,12.0,0.,12.0,0.,12.0
1979-07-27 15:56:47.950 ,3,1,0.,12.0,0.,12.0,0.,12.0,0.,12.0
1979-07-27 15:56:59.950 ,3,1,0.,12.0,0.,12.0,0.,12.0,0.,12.0
1979-07-27 15:57:11.950 ,3,0,0.,12.0,0.,12.0,0.,12.0,0.,12.0
1979-07-27 15:57:23.950 ,3,0,0.,12.0,0.,12.0,0.,12.0,0.,12.0
1979-07-27 15:57:35.950 ,2,1,0.,12.0,0.,12.0,0.,12.0,0.,12.0
1979-07-27 15:57:47.950 ,2,1,0.,12.0,0.,12.0,0.,12.0,0.,12.0
1979-07-27 15:57:59.950 ,2,0,0.,12.0,0.,12.0,0.,12.0,0.,12.0
1979-07-27 15:58:11.950 ,2,0,0.,12.0,0.,12.0,0.,12.0,0.,12.0
1979-07-27 15:58:23.950 ,1,1,0.,12.0,0.,12.0,0.,12.0,0.,12.0
1979-07-27 15:58:35.950 ,1,1,0.,12.0,0.,12.0,0.,12.0,0.,12.0
1979-07-27 15:58:47.950 ,1,0,1.,12.0,0.,12.0,0.,12.0,0.,12.0
1979-07-27 15:58:59.950 ,1,0,0.,12.0,0.,12.0,0.,12.0,0.,12.0
1979-07-27 15:59:11.950 ,0,1,0.,12.0,0.,12.0,0.,12.0,0.,12.0
1979-07-27 15:59:23.950 ,0,1,0.,12.0,0.,12.0,0.,12.0,0.,12.0
1979-07-27 15:59:35.950 ,0,0,0.,12.0,0.,12.0,0.,12.0,0.,12.0
1979-07-27 15:59:47.950 ,0,0,0.,12.0,0.,12.0,0.,12.0,0.,12.0
1979-07-27 15:59:59.950 ,0,1,0.,12.0,0.,12.0,0.,12.0,0.,12.0
1979-07-27 16:00:11.950 ,0,1,0.,12.0,0.,12.0,0.,12.0,0.,12.0
1979-07-27 16:00:23.950 ,0,0,0.,12.0,0.,12.0,0.,12.0,0.,12.0
1979-07-27 16:00:35.950 ,0,0,0.,12.0,0.,12.0,0.,12.0,0.,12.0
1979-07-27 16:00:47.950 ,1,1,0.,12.0,0.,12.0,0.,12.0,0.,12.0
1979-07-27 16:00:59.950 ,1,1,0.,12.0,0.,12.0,0.,12.0,0.,12.0
1979-07-27 16:01:11.950 ,1,0,0.,12.0,0.,12.0,0.,12.0,0.,12.0
1979-07-27 16:01:23.950 ,1,0,0.,12.0,0.,12.0,0.,12.0,0.,12.0
1979-07-27 16:01:35.950 ,2,1,0.,12.0,0.,12.0,0.,12.0,0.,12.0
1979-07-27 16:01:47.950 ,2,1,0.,12.0,0.,12.0,0.,12.0,0.,12.0
1979-07-27 16:01:59.950 ,2,0,0.,12.0,0.,12.0,0.,12.0,0.,12.0
1979-07-27 16:02:11.950 ,2,0,0.,12.0,0.,12.0,0.,12.0,0.,12.0
1979-07-27 16:02:23.950 ,3,1,0.,12.0,0.,12.0,0.,12.0,0.,12.0
1979-07-27 16:02:35.950 ,3,1,0.,12.0,0.,12.0,0.,12.0,0.,12.0
1979-07-27 16:02:47.950 ,3,0,0.,12.0,0.,12.0,0.,12.0,0.,12.0
1979-07-27 16:02:59.950 ,3,0,0.,12.0,0.,12.0,0.,12.0,0.,12.0
1979-07-27 16:03:11.950 ,4,1,0.,12.0,0.,12.0,0.,12.0,0.,12.0
1979-07-27 16:03:23.950 ,4,1,0.,12.0,0.,12.0,0.,12.0,0.,12.0
1979-07-27 16:03:35.950 ,4,0,0.,12.0,0.,12.0,0.,12.0,0.,12.0
1979-07-27 16:03:47.950 ,4,0,0.,12.0,0.,12.0,0.,12.0,0.,12.0
1979-07-27 16:03:59.950 ,5,1,0.,12.0,0.,12.0,0.,12.0,0.,12.0
1979-07-27 16:04:11.950 ,5,1,0.,12.0,0.,12.0,0.,12.0,0.,12.0
1979-07-27 16:04:23.950 ,5,0,0.,12.0,0.,12.0,0.,12.0,0.,12.0
1979-07-27 16:04:35.950 ,5,0,0.,12.0,0.,12.0,0.,12.0,0.,12.0
1979-07-27 16:04:47.950 ,6,1,0.,12.0,0.,12.0,0.,12.0,0.,12.0
1979-07-27 16:04:59.950 ,6,1,0.,12.0,0.,12.0,0.,12.0,0.,12.0
1979-07-27 16:05:11.950 ,6,0,0.,12.0,0.,12.0,0.,12.0,0.,12.0
1979-07-27 16:05:23.950 ,6,0,0.,12.0,0.,12.0,0.,12.0,0.,12.0
1979-07-27 16:05:35.950 ,7,1,0.,12.0,0.,12.0,0.,12.0,0.,12.0
1979-07-27 16:05:47.950 ,7,1,0.,12.0,0.,12.0,0.,12.0,0.,12.0
1979-07-27 16:05:59.950 ,7,0,0.,12.0,0.,12.0,0.,12.0,0.,12.0
1979-07-27 16:06:11.950 ,7,0,0.,12.0,0.,12.0,0.,12.0,0.,12.0
1979-07-27 16:06:23.950 ,7,1,0.,12.0,0.,12.0,0.,12.0,0.,12.0
1979-07-27 16:06:35.950 ,7,1,0.,12.0,0.,12.0,0.,12.0,0.,12.0
1979-07-27 16:06:47.950 ,7,0,0.,12.0,0.,12.0,0.,12.0,0.,12.0
1979-07-27 16:06:59.950 ,7,0,0.,12.0,0.,12.0,0.,12.0,0.,12.0
1979-07-27 16:07:11.950 ,6,1,0.,12.0,0.,12.0,0.,12.0,0.,12.0
1979-07-27 16:07:23.950 ,6,1,0.,12.0,0.,12.0,0.,12.0,0.,12.0
1979-07-27 16:07:35.950 ,6,0,0.,12.0,0.,12.0,0.,12.0,0.,12.0
1979-07-27 16:07:47.950 ,6,0,0.,12.0,0.,12.0,0.,12.0,0.,12.0
1979-07-27 16:07:59.950 ,5,1,0.,12.0,0.,12.0,0.,12.0,0.,12.0
1979-07-27 16:08:11.950 ,5,1,0.,12.0,0.,12.0,0.,12.0,0.,12.0
1979-07-27 16:08:23.950 ,5,0,0.,12.0,0.,12.0,0.,12.0,0.,12.0
1979-07-27 16:08:35.950 ,5,0,0.,12.0,0.,12.0,0.,12.0,0.,12.0
1979-07-27 16:08:47.950 ,4,1,0.,12.0,0.,12.0,0.,12.0,0.,12.0
1979-07-27 16:08:59.950 ,4,1,0.,12.0,0.,12.0,0.,12.0,0.,12.0
1979-07-27 16:09:11.950 ,4,0,0.,12.0,0.,12.0,0.,12.0,0.,12.0
1979-07-27 16:09:23.950 ,4,0,0.,12.0,0.,12.0,0.,12.0,0.,12.0
1979-07-27 16:09:35.950 ,3,1,0.,12.0,0.,12.0,0.,12.0,0.,12.0
1979-07-27 16:09:47.950 ,3,1,0.,12.0,0.,12.0,0.,12.0,0.,12.0
1979-07-27 16:09:59.950 ,3,0,0.,12.0,0.,12.0,0.,12.0,0.,12.0
1979-07-27 16:10:11.950 ,3,0,0.,12.0,0.,12.0,0.,12.0,0.,12.0
1979-07-27 16:10:23.950 ,2,1,0.,12.0,0.,12.0,0.,12.0,0.,12.0
1979-07-27 16:10:35.950 ,2,1,0.,12.0,0.,12.0,0.,12.0,0.,12.0
1979-07-27 16:10:47.950 ,2,0,0.,12.0,0.,12.0,0.,12.0,0.,12.0
1979-07-27 16:10:59.950 ,2,0,0.,12.0,0.,12.0,0.,12.0,0.,12.0
1979-07-27 16:11:11.950 ,1,1,0.,12.0,0.,12.0,0.,12.0,0.,12.0
1979-07-27 16:11:23.950 ,1,1,0.,12.0,0.,12.0,0.,12.0,0.,12.0
1979-07-27 16:11:35.950 ,1,0,0.,12.0,0.,12.0,0.,12.0,0.,12.0
1979-07-27 16:11:47.950 ,1,0,0.,12.0,0.,12.0,0.,12.0,0.,12.0
1979-07-27 16:11:59.950 ,0,1,0.,12.0,0.,12.0,0.,12.0,0.,12.0
1979-07-27 16:12:11.950 ,0,1,0.,12.0,0.,12.0,0.,12.0,0.,12.0
1979-07-27 16:12:23.950 ,0,0,0.,12.0,0.,12.0,0.,12.0,0.,12.0
1979-07-27 16:12:35.950 ,0,0,0.,12.0,0.,12.0,0.,12.0,0.,12.0
1979-07-27 16:12:47.950 ,0,1,0.,12.0,0.,12.0,0.,12.0,0.,12.0
1979-07-27 16:12:59.950 ,0,1,0.,12.0,0.,12.0,0.,12.0,0.,12.0
1979-07-27 16:13:11.950 ,0,0,0.,12.0,0.,12.0,0.,12.0,0.,12.0
1979-07-27 16:13:23.950 ,0,0,0.,12.0,0.,12.0,0.,12.0,0.,12.0
1979-07-27 16:13:35.950 ,1,1,0.,12.0,0.,12.0,0.,12.0,0.,12.0
1979-07-27 16:13:47.950 ,1,1,0.,12.0,0.,12.0,0.,12.0,0.,12.0
1979-07-27 16:13:59.950 ,1,0,0.,12.0,0.,12.0,0.,12.0,0.,12.0
1979-07-27 16:14:11.950 ,1,0,0.,12.0,0.,12.0,0.,12.0,0.,12.0
1979-07-27 16:14:23.950 ,2,1,0.,12.0,0.,12.0,0.,12.0,0.,12.0
1979-07-27 16:14:35.950 ,2,1,0.,12.0,0.,12.0,0.,12.0,0.,12.0
1979-07-27 16:14:47.950 ,2,0,0.,12.0,0.,12.0,0.,12.0,0.,12.0
1979-07-27 16:14:59.950 ,2,0,0.,12.0,0.,12.0,0.,12.0,0.,12.0
1979-07-27 16:15:11.950 ,3,1,0.,12.0,0.,12.0,0.,12.0,0.,12.0
1979-07-27 16:15:23.950 ,3,1,0.,12.0,0.,12.0,0.,12.0,0.,12.0
1979-07-27 16:15:35.950 ,3,0,0.,12.0,0.,12.0,0.,12.0,0.,12.0
1979-07-27 16:15:47.950 ,3,0,0.,12.0,0.,12.0,0.,12.0,0.,12.0
1979-07-27 16:15:59.950 ,4,1,0.,12.0,0.,12.0,0.,12.0,0.,12.0
1979-07-27 16:16:11.950 ,4,1,0.,12.0,0.,12.0,0.,12.0,0.,12.0
1979-07-27 16:16:23.950 ,4,0,0.,12.0,0.,12.0,0.,12.0,0.,12.0
1979-07-27 16:16:35.950 ,4,0,0.,12.0,0.,12.0,0.,12.0,0.,12.0
1979-07-27 16:16:47.950 ,5,1,0.,12.0,0.,12.0,0.,12.0,0.,12.0
1979-07-27 16:16:59.950 ,5,1,0.,12.0,0.,12.0,0.,12.0,0.,12.0
1979-07-27 16:17:11.950 ,5,0,0.,12.0,0.,12.0,0.,12.0,0.,12.0
1979-07-27 16:17:23.950 ,5,0,0.,12.0,0.,12.0,0.,12.0,0.,12.0